Vancouver, WA
on Wednesday, November 14, 2012

Wednesday
Previous Day Next Day
Daily Summary
 ActualAverageRecord
Temperature
Mean Temperature °F 47°F  
Max Temperature 57°F 54°F 68°F (1899)
Min Temperature 36°F 40°F 15°F (1978)
Degree Days
Heating Degree Days 18    
Month to date heating degree days 201  
Since 1 July heating degree days 520  
Cooling Degree Days 0    
Month to date cooling degree days 0  
Year to date cooling degree days 398  
Moisture
Dew Point 43°F   
Average Humidity 86    
Maximum Humidity 100    
Minimum Humidity 72    
Precipitation
Precipitation 0.00 in 0.19 in 2.33 in (1966)
Month to date precipitation 1.37 2.54  
Year to date precipitation 32.53 29.00  
Snow
Snow 0.00 in in in ()
Month to date snowfall 0.0  
Snow Depth 0.00 in   
Wind
Wind Speed 1 mph   
Max Wind Speed 7 mph   
Max Gust Speed 12 mph   
Visibility 5 miles   
Events Fog   

Key: T is trace of precipitation, MM is missing value
Source: NWS Daily Summary
Time(PST)TemperatureDew PointHumidity Pressure Visibility Wind DirectionWind SpeedGust SpeedPrecipitationEvents Conditions
12:33 AM 50.0°F 48.2°F 94% 30.22 in 10.0 miles Calm Calm - N/A   Mostly Cloudy
12:53 AM 50.0°F 48.0°F 93% 30.22 in 10.0 miles Calm Calm - N/A   Mostly Cloudy
1:33 AM 50.0°F 46.4°F 87% 30.22 in 10.0 miles Calm Calm - N/A   Overcast
1:53 AM 50.0°F 48.0°F 93% 30.23 in 10.0 miles Calm Calm - N/A   Overcast
2:45 AM 48.2°F 46.4°F 93% 30.23 in 10.0 miles Calm Calm - N/A   Overcast
2:53 AM 48.0°F 46.9°F 96% 30.23 in 10.0 miles Calm Calm - N/A   Overcast
3:26 AM 48.2°F 46.4°F 93% 30.22 in 10.0 miles Calm Calm - N/A   Overcast
3:34 AM 48.2°F 46.4°F 93% 30.22 in 8.0 miles Calm Calm - N/A   Overcast
3:45 AM 48.2°F 46.4°F 93% 30.22 in 1.8 miles Calm Calm - N/A   Overcast
3:51 AM 46.4°F 46.4°F 100% 30.23 in 0.8 miles Calm Calm - N/A   Overcast
3:53 AM 46.9°F 46.0°F 97% 30.23 in 0.8 miles Calm Calm - N/A   Overcast
4:08 AM 48.2°F 46.4°F 93% 30.23 in 1.5 miles Calm Calm - N/A   Overcast
4:11 AM 48.2°F 46.4°F 93% 30.23 in 3.0 miles Calm Calm - N/A   Overcast
4:53 AM 48.0°F 46.0°F 93% 30.24 in 7.0 miles Calm Calm - N/A   Overcast
5:12 AM 48.2°F 46.4°F 93% 30.24 in 6.0 miles West 3.5 mph - N/A   Overcast
5:53 AM 48.0°F 46.9°F 96% 30.25 in 7.0 miles Calm Calm - N/A   Overcast
6:26 AM 48.2°F 46.4°F 93% 30.25 in 6.0 miles Calm Calm - N/A   Overcast
6:34 AM 48.2°F 46.4°F 93% 30.25 in 4.0 miles Calm Calm - N/A   Overcast
6:49 AM 48.2°F 46.4°F 93% 30.25 in 1.8 miles Calm Calm - N/A   Overcast
6:53 AM 46.9°F 46.0°F 97% 30.26 in 1.2 miles Calm Calm - N/A   Overcast
7:08 AM 48.2°F 46.4°F 93% 30.26 in 2.0 miles NW 3.5 mph - N/A   Overcast
7:17 AM 48.2°F 46.4°F 93% 30.27 in 5.0 miles Calm Calm - N/A   Overcast
7:34 AM 48.2°F 46.4°F 93% 30.27 in 4.0 miles WNW 4.6 mph - N/A   Overcast
7:53 AM 48.0°F 46.9°F 96% 30.28 in 5.0 miles West 3.5 mph - N/A   Overcast
8:53 AM 48.9°F 46.9°F 93% 30.30 in 6.0 miles Calm Calm - N/A   Overcast
9:24 AM 48.2°F 46.4°F 93% 30.29 in 7.0 miles Calm Calm - N/A   Overcast
9:53 AM 50.0°F 46.9°F 89% 30.30 in 6.0 miles Calm Calm - N/A   Overcast
10:53 AM 52.0°F 46.9°F 83% 30.31 in 9.0 miles Calm Calm - N/A   Overcast
11:07 AM 51.8°F 46.4°F 82% 30.30 in 10.0 miles Calm Calm - N/A   Overcast
11:53 AM 54.0°F 46.9°F 77% 30.30 in 10.0 miles Calm Calm - N/A   Overcast
12:29 PM 53.6°F 46.4°F 77% 30.29 in 10.0 miles WSW 3.5 mph - N/A   Mostly Cloudy
12:53 PM 55.0°F 46.9°F 74% 30.29 in 10.0 miles Calm Calm - N/A   Mostly Cloudy
1:08 PM 57.2°F 46.4°F 67% 30.28 in 10.0 miles NNE 3.5 mph - N/A   Scattered Clouds
1:53 PM 55.9°F 48.0°F 75% 30.27 in 10.0 miles West 5.8 mph - N/A   Scattered Clouds
2:53 PM 55.9°F 46.9°F 72% 30.27 in 10.0 miles WNW 5.8 mph - N/A   Clear
3:53 PM 55.0°F 46.9°F 74% 30.26 in 10.0 miles WNW 3.5 mph - N/A   Clear
4:53 PM 52.0°F 46.0°F 80% 30.25 in 10.0 miles NW 3.5 mph - N/A   Clear
5:53 PM 50.0°F 46.0°F 86% 30.25 in 10.0 miles Calm Calm - N/A   Clear
6:53 PM 48.0°F 45.0°F 89% 30.25 in 10.0 miles NW 3.5 mph - N/A   Clear
7:53 PM 42.1°F 39.9°F 92% 30.25 in 2.0 miles Calm Calm - N/A   Clear
7:55 PM 42.8°F 39.2°F 87% 30.25 in 1.0 miles Calm Calm - N/A   Mist
8:02 PM 44.6°F 42.8°F 93% 30.25 in 0.5 miles Calm Calm - N/A Fog Fog
8:08 PM 44.6°F 42.8°F 93% 30.25 in 1.2 miles WNW 3.5 mph - N/A   Partly Cloudy
8:13 PM 44.6°F 42.8°F 93% 30.24 in 2.0 miles WNW 3.5 mph - N/A   Partly Cloudy
8:20 PM 46.4°F 44.6°F 93% 30.24 in 7.0 miles WNW 4.6 mph - N/A   Partly Cloudy
8:53 PM 44.1°F 42.1°F 93% 30.25 in 8.0 miles Calm Calm - N/A   Clear
9:16 PM 42.8°F 41.0°F 93% 30.25 in 1.8 miles Calm Calm - N/A   Clear
9:23 PM 41.0°F 39.2°F 93% 30.25 in 1.0 miles Calm Calm - N/A   Clear
9:27 PM 37.4°F 37.4°F 100% 30.25 in 2.5 miles Calm Calm - N/A   Clear
9:40 PM 39.2°F 37.4°F 93% 30.25 in 1.2 miles Calm Calm - N/A   Clear
9:53 PM 39.0°F 37.9°F 96% 30.25 in 0.5 miles Calm Calm - N/A Fog Fog
10:00 PM 39.2°F 37.4°F 93% 30.24 in 0.5 miles Calm Calm - N/A Fog Fog
10:07 PM 39.2°F 37.4°F 93% 30.24 in 1.0 miles Calm Calm - N/A   Clear
10:16 PM 39.2°F 37.4°F 93% 30.24 in 0.8 miles Calm Calm - N/A   Mist
10:37 PM 39.2°F 37.4°F 93% 30.24 in 0.2 miles Calm Calm - N/A Fog Fog
10:43 PM 39.2°F 39.2°F 100% 30.24 in 1.0 miles Calm Calm - N/A   Mist
10:45 PM 39.2°F 37.4°F 93% 30.24 in 2.0 miles Calm Calm - N/A   Scattered Clouds
10:53 PM 36.0°F 36.0°F 100% 30.24 in 1.0 miles Calm Calm - N/A   Mist
11:01 PM 37.4°F 35.6°F 93% 30.23 in 0.5 miles Calm Calm - N/A Fog Fog
11:07 PM 37.4°F 35.6°F 93% 30.23 in 1.5 miles Calm Calm - N/A   Clear
11:11 PM 37.4°F 37.4°F 100% 30.23 in 2.0 miles Calm Calm - N/A   Partly Cloudy
11:17 PM 35.6°F 35.6°F 100% 30.23 in 1.5 miles Calm Calm - N/A   Mostly Cloudy
11:26 PM 37.4°F 35.6°F 93% 30.23 in 3.0 miles Calm Calm - N/A   Mostly Cloudy
11:50 PM 39.2°F 37.4°F 93% 30.22 in 2.0 miles Calm Calm - N/A   Overcast
11:53 PM 39.0°F 37.9°F 96% 30.22 in 2.0 miles Calm Calm - N/A   Overcast
Moon Phase
Nov. 14 Nov. 20 Nov. 28 Dec. 06 Dec. 13
Sunrise:07:09 AM (PST) Moon Rise:08:08 AM (PST)11/14
Sunset:04:40 PM (PST) Moon Set:05:31 PM (PST)11/14

Copyright © 2014 The Weather Underground, Inc.